Moyenne Distance de Vieux Boucau - G

Date : 24/08/2010

Place Nom Licence Catégorie Club Temps Points
1 HELIOT Claude 2349 H70 2604AR 0:25:41 4553
2 DEVILLE Nelly 2401 D60 5402GE 0:26:15 4455
3 EUZEN J-Paul 16403 H70 6911AR 0:28:29 4106
4 DIEUDONNE Madeleine 1380 D60 7808IF 0:31:47 3680
5 FRANTZ Francoise 6886 D60 2904BR 0:32:07 3641
6 OUDIN M-Reine 7574 D60 6804GE 0:32:21 3615
7 RICHARD Nicole 14245 D60 0207HF 0:33:41 3472
8 ROBERT Francoise 6491 D60 6913AR 0:34:09 3425
9 PIGER Albert 116 H70 4504CE 0:34:49 3359
10 GROSJEAN A-Marie 12059 D70 6913AR 0:35:12 3322
11 NATALI Annie 1106 D60 8105OC 0:35:28 3297
12 DUVOUX France 6826 D60 4504CE 0:37:25 3126
13 ROBERT Martine 1087 D60 7004BF 0:38:20 3051
14 BAUDOIN Annie 16634 D60 0615PZ 0:39:21 2972
15 BOUSQUET Michel 1438 H70 9504IF 0:39:38 2951
16 MOULIERE M-Bernadette 2888 D65 0207HF 0:40:04 2919
17 POINSENOT Roger 11071 H70 2517BF 0:40:20 2900
18 THIEBAULT Monique 5033 D60 3319NA 0:40:25 2894
19 JEANPIERRE M-Therese 3302 D65 8809GE 0:41:09 2842
20 POGU Paulette 4671 D60 5402GE 0:41:53 2792
21 DODIN Genevieve 4392 D60 8809GE 0:42:46 2735
22 CABON Monique 96 D60 2904BR 0:43:17 2702
23 LARMINACH Genevieve 647 D60 3308NA 0:44:33 2625
24 COCAUT Yvonne 5497 D60 5604BR 0:44:43 2615
25 VANNIER Victorine 2124 D60 7703IF 0:45:59 2543
26 LEFOUEST Joseph 1000 H70 2904BR 0:46:36 2510
27 THIEBAULT M-Paule 4490 D60 6804GE 0:48:06 2431
28 ETIENNE Bernadette 15324 D60 8807GE 0:49:00 2387
29 BASTIEN-FATH Nicole 8954 D60 5413GE 0:51:45 2260
30 KIEFFER Mireille 2680 D60 2101BF 0:52:42 2219
31 LEFOUEST M-Therese 1001 D70 2904BR 0:53:56 2168
32 JOLY Francoise 2487 D65 8807GE 0:55:01 2126
33 CHAVERNAC Bruno 1416 H70 8315PZ 0:58:17 2007
34 ALLANCON Claudine 14632 D60 2906BR 0:58:28 2000
35 BOUSQUET Huguette 1437 D70 9504IF 1:06:56 1747
36 BREMAUD Veronique 5804 D50 1202OC 1:07:44 1727
37 LUDEWIG-JAMES Carol 15894 D70 5907HF 1:10:55 1649
38 LAURENT Therese 725 D70 2508BF 1:24:10 1389
GROSJEAN Pierre 12354 H70 6913AR pm 0
PIGER Ghislaine 117 D70 4504CE pm 0